GW5695 Weather Reports


time (UTC)temp
C
wind
direction
speed
KPH
gust
KPH
rain 1hr
cm
rain 24hr
cm
rain mn
cm
humidity
%
barometer
mb
20260504024055 8 149 0.0 1.6 0.00 0.00 0.00 51 1012.1
20260504023552 8 151 1.6 1.6 0.00 0.00 0.00 52 1012.1
20260504023048 8 149 3.2 3.2 0.00 0.00 0.00 54 1012.1
20260504022544 8 153 0.0 0.0 0.00 0.00 0.00 57 1012.3
20260504022040 8 148 0.0 0.0 0.00 0.00 0.00 54 1012.1
20260504021538 8 147 0.0 0.0 0.00 0.00 0.00 55 1012.2
20260504021034 8 148 0.0 0.0 0.00 0.00 0.00 53 1012.2
20260504020531 8 145 0.0 0.0 0.00 0.00 0.00 50 1011.9
20260504020028 8 147 0.0 0.0 0.00 0.00 0.00 47 1011.9
20260504015524 8 149 0.0 0.0 0.00 0.00 0.00 50 1012.0
20260504015020 9 147 0.0 1.6 0.00 0.00 0.00 49 1011.8
20260504014517 9 146 0.0 0.0 0.00 0.00 0.00 48 1011.8
20260504014014 10 145 0.0 0.0 0.00 0.00 0.00 46 1011.8
20260504013512 10 143 0.0 0.0 0.00 0.00 0.00 46 1011.7
20260504013009 10 144 0.0 1.6 0.00 0.00 0.00 45 1011.6
20260504012506 10 145 0.0 1.6 0.00 0.00 0.00 47 1011.5
20260504012004 10 143 0.0 0.0 0.00 0.00 0.00 46 1011.5
20260504011500 11 144 0.0 0.0 0.00 0.00 0.00 45 1011.3
20260504010955 11 145 0.0 0.0 0.00 0.00 0.00 42 1011.4
20260504010452 12 141 0.0 1.6 0.00 0.00 0.00 38 1011.4
20260504005948 13 138 1.6 4.8 0.00 0.00 0.00 32 1011.3
20260504005445 13 136 1.6 6.4 0.00 0.00 0.00 32 1011.2
20260504004943 13 144 4.8 4.8 0.00 0.00 0.00 31 1011.2
20260504004440 13 124 3.2 4.8 0.00 0.00 0.00 32 1011.1
20260504003937 13 151 3.2 4.8 0.00 0.00 0.00 32 1011.1
20260504003433 13 137 4.8 4.8 0.00 0.00 0.00 31 1011.1
20260504002930 13 147 1.6 4.8 0.00 0.00 0.00 31 1011.0
20260504002427 13 138 4.8 4.8 0.00 0.00 0.00 30 1011.1
20260504001924 13 135 3.2 3.2 0.00 0.00 0.00 31 1011.0
20260504001422 14 144 1.6 3.2 0.00 0.00 0.00 31 1011.0
20260504000918 15 139 1.6 3.2 0.00 0.00 0.00 30 1011.1
20260504000416 15 144 0.0 1.6 0.00 0.00 0.00 29 1011.1
20260503235913 16 126 3.2 4.8 0.00 0.00 0.00 26 1011.2
20260503235410 16 133 0.0 1.6 0.00 0.00 0.00 27 1010.9
20260503234908 17 140 1.6 4.8 0.00 0.00 0.00 25 1011.0
20260503234405 17 146 0.0 1.6 0.00 0.00 0.00 26 1011.0
20260503233903 17 148 1.6 3.2 0.00 0.00 0.00 25 1011.1
20260503233359 17 119 3.2 6.4 0.00 0.00 0.00 24 1011.1
20260503232855 17 150 1.6 3.2 0.00 0.00 0.00 24 1011.1
20260503232353 18 134 1.6 3.2 0.00 0.00 0.00 23 1011.0
20260503231850 18 155 0.0 1.6 0.00 0.00 0.00 24 1010.9
20260503231347 18 11 3.2 4.8 0.00 0.00 0.00 24 1010.9
20260503230843 18 136 3.2 4.8 0.00 0.00 0.00 22 1010.8
20260503230340 17 62 3.2 4.8 0.00 0.00 0.00 23 1010.8
20260503225838 18 127 1.6 9.7 0.00 0.00 0.00 23 1011.0
20260503225334 17 116 1.6 3.2 0.00 0.00 0.00 26 1010.9
20260503224830 17 135 4.8 11.3 0.00 0.00 0.00 24 1010.8
20260503224328 17 122 11.3 14.5 0.00 0.00 0.00 23 1010.8
20260503223825 17 15 8.0 9.7 0.00 0.00 0.00 24 1010.5
20260503223323 18 331 9.7 11.3 0.00 0.00 0.00 23 1010.9
20260503222818 17 33 3.2 4.8 0.00 0.00 0.00 24 1010.7
20260503222317 17 52 3.2 6.4 0.00 0.00 0.00 23 1010.5
20260503221815 17 95 1.6 6.4 0.00 0.00 0.00 23 1010.7
20260503221313 17 20 6.4 12.9 0.00 0.00 0.00 24 1010.8
20260503220809 17 247 6.4 17.7 0.00 0.00 0.00 24 1010.5
20260503220306 17 72 3.2 6.4 0.00 0.00 0.00 25 1010.9
20260503215802 17 187 8.0 11.3 0.00 0.00 0.00 23 1010.9
20260503215259 16 71 4.8 16.1 0.00 0.00 0.00 23 1011.0
20260503214757 17 306 12.9 22.5 0.00 0.00 0.00 23 1010.7
20260503214254 17 26 6.4 11.3 0.00 0.00 0.00 23 1010.9
20260503213752 17 6 14.5 22.5 0.00 0.00 0.00 23 1010.9
20260503213249 17 315 4.8 11.3 0.00 0.00 0.00 23 1010.8
20260503212746 17 1 4.8 14.5 0.00 0.00 0.00 23 1010.9
20260503212244 17 25 12.9 17.7 0.00 0.00 0.00 22 1011.0
20260503211741 17 296 17.7 24.1 0.00 0.00 0.00 24 1011.0
20260503211237 17 292 11.3 16.1 0.00 0.00 0.00 24 1011.1
20260503210732 17 80 4.8 14.5 0.00 0.00 0.00 23 1010.9
20260503210230 17 124 3.2 9.7 0.00 0.00 0.00 23 1010.9
20260503205725 16 9 14.5 17.7 0.00 0.00 0.00 24 1011.1
20260503205222 16 3 14.5 22.5 0.00 0.00 0.00 26 1011.1
20260503204718 16 312 12.9 20.9 0.00 0.00 0.00 23 1011.1
20260503204216 16 327 12.9 20.9 0.00 0.00 0.00 23 1011.2
20260503203713 17 123 9.7 12.9 0.00 0.00 0.00 25 1011.1
20260503203211 16 337 8.0 11.3 0.00 0.00 0.00 26 1011.3
20260503202708 16 359 8.0 17.7 0.00 0.00 0.00 23 1011.4
20260503202206 16 140 3.2 12.9 0.00 0.00 0.00 23 1011.4
20260503201703 16 330 4.8 6.4 0.00 0.00 0.00 24 1011.3
20260503201200 15 97 4.8 6.4 0.00 0.00 0.00 27 1011.6
20260503200656 16 9 16.1 20.9 0.00 0.00 0.00 24 1011.7
20260503200153 15 156 0.0 3.2 0.00 0.00 0.00 25 1011.7
20260503195650 16 280 9.7 14.5 0.00 0.00 0.00 28 1011.8
20260503195147 16 330 14.5 16.1 0.00 0.00 0.00 24 1011.9
20260503194644 16 345 11.3 12.9 0.00 0.00 0.00 25 1012.0
20260503194139 16 156 6.4 20.9 0.00 0.00 0.00 25 1012.0
20260503193637 15 18 16.1 20.9 0.00 0.00 0.00 28 1012.0
20260503193132 15 157 14.5 30.6 0.00 0.00 0.00 25 1011.9
20260503192628 15 346 14.5 22.5 0.00 0.00 0.00 26 1012.1
20260503192124 15 326 19.3 25.7 0.00 0.00 0.00 25 1012.3
20260503191621 15 295 17.7 29.0 0.00 0.00 0.00 25 1012.4
20260503191118 15 30 17.7 24.1 0.00 0.00 0.00 25 1012.3
20260503190615 16 84 1.6 11.3 0.00 0.00 0.00 26 1012.5
20260503190112 15 341 8.0 22.5 0.00 0.00 0.00 28 1012.4
20260503185608 14 117 3.2 11.3 0.00 0.00 0.00 28 1012.5
20260503185108 14 21 8.0 12.9 0.00 0.00 0.00 27 1012.7
20260503184604 15 45 11.3 22.5 0.00 0.00 0.00 28 1012.8
20260503184100 15 318 8.0 14.5 0.00 0.00 0.00 26 1012.8
20260503183557 14 306 9.7 14.5 0.00 0.00 0.00 28 1012.8
20260503183054 14 335 8.0 16.1 0.00 0.00 0.00 28 1013.0
20260503182553 14 308 24.1 27.4 0.00 0.00 0.00 29 1013.1
20260503182050 15 327 14.5 20.9 0.00 0.00 0.00 30 1012.9
20260503181547 15 103 6.4 9.7 0.00 0.00 0.00 31 1012.9
20260503181043 13 149 1.6 6.4 0.00 0.00 0.00 30 1012.9
20260503180541 13 318 8.0 12.9 0.00 0.00 0.00 30 1013.0
20260503180038 13 335 9.7 17.7 0.00 0.00 0.00 30 1013.1
20260503175535 13 9 9.7 16.1 0.00 0.00 0.00 31 1013.1
20260503175033 13 306 9.7 17.7 0.00 0.00 0.00 33 1013.0
20260503174530 13 128 11.3 27.4 0.00 0.00 0.00 30 1013.2
20260503174026 13 333 4.8 11.3 0.00 0.00 0.00 32 1013.0
20260503173521 13 61 11.3 16.1 0.00 0.00 0.00 30 1013.2
20260503173017 13 111 3.2 9.7 0.00 0.00 0.00 31 1013.3
20260503172515 12 320 16.1 22.5 0.00 0.00 0.00 32 1013.2
20260503172012 13 158 4.8 20.9 0.00 0.00 0.00 31 1013.3
20260503171509 12 165 3.2 17.7 0.00 0.00 0.00 32 1013.3
20260503171006 12 120 9.7 17.7 0.00 0.00 0.00 32 1013.5
20260503170502 12 322 17.7 22.5 0.00 0.00 0.00 32 1013.6
20260503150855 10 106 3.2 11.3 0.00 0.00 0.00 38 1014.8
20260503150351 9 206 6.4 14.5 0.00 0.00 0.00 38 1014.6
20260503140315 8 341 3.2 4.8 0.00 0.00 0.00 42 1014.7
20260503131244 7 357 14.5 20.9 0.00 0.00 0.00 48 1014.8
20260503130742 6 29 9.7 14.5 0.00 0.00 0.00 48 1014.6
20260503130239 7 342 11.3 12.9 0.00 0.00 0.00 48 1014.9
20260503120205 5 111 3.2 12.9 0.00 0.00 0.00 55 1014.7
20260503110632 3 148 1.6 3.2 0.00 0.00 0.00 60 1013.9
20260503110130 3 140 1.6 1.6 0.00 0.00 0.00 63 1014.0
20260503081446 5 139 1.6 3.2 0.00 0.00 0.00 63 1012.2
20260503080943 5 157 1.6 3.2 0.00 0.00 0.00 63 1012.2
20260503080439 5 130 1.6 3.2 0.00 0.00 0.00 63 1011.9
20260503072916 5 75 3.2 3.2 0.00 0.00 0.00 63 1011.9
20260503072413 5 130 1.6 1.6 0.00 0.00 0.00 63 1011.9
20260503071910 5 138 0.0 1.6 0.00 0.00 0.00 63 1011.8
20260503071407 5 150 0.0 1.6 0.00 0.00 0.00 62 1011.7
20260503070903 5 119 0.0 1.6 0.00 0.00 0.00 61 1011.8
20260503070400 5 127 3.2 11.3 0.00 0.00 0.00 60 1011.7
20260503060326 6 133 1.6 3.2 0.00 0.00 0.00 60 1011.5
20260503054814 6 125 3.2 4.8 0.00 0.00 0.00 61 1011.5
20260503054310 6 141 1.6 3.2 0.00 0.00 0.00 62 1011.5
20260503053808 6 149 1.6 6.4 0.00 0.00 0.00 61 1011.5
20260503053306 6 345 3.2 4.8 0.00 0.00 0.00 61 1011.5
20260503052802 6 144 1.6 6.4 0.00 0.00 0.00 62 1011.5
20260503052259 6 142 0.0 3.2 0.00 0.00 0.00 63 1011.3
20260503051755 6 144 3.2 6.4 0.00 0.00 0.00 63 1011.5
20260503051252 5 146 1.6 4.8 0.00 0.00 0.00 65 1011.5
20260503050748 5 147 0.0 3.2 0.00 0.00 0.00 65 1011.4
20260503050244 5 148 1.6 3.2 0.00 0.00 0.00 65 1011.5
20260503045742 5 145 0.0 0.0 0.00 0.00 0.00 65 1011.5
20260503045240 5 152 0.0 0.0 0.00 0.00 0.00 64 1011.4
20260503044736 5 136 1.6 1.6 0.00 0.00 0.00 64 1011.4
20260503044233 5 121 3.2 3.2 0.00 0.00 0.00 63 1011.6
20260503043730 5 143 1.6 3.2 0.00 0.00 0.00 63 1011.5
20260503043227 6 156 0.0 1.6 0.00 0.00 0.00 63 1011.6
20260503042723 6 128 1.6 3.2 0.00 0.00 0.00 62 1011.7
20260503042220 6 138 1.6 3.2 0.00 0.00 0.00 61 1011.6
20260503041716 6 147 0.0 0.0 0.00 0.00 0.00 60 1011.6
20260503041214 6 149 0.0 0.0 0.00 0.00 0.00 59 1011.5
20260503040711 6 150 0.0 0.0 0.00 0.00 0.00 58 1011.6
20260503040209 7 149 0.0 4.8 0.00 0.00 0.00 57 1011.4
20260503035705 7 79 4.8 6.4 0.00 0.00 0.00 58 1011.4
20260503035203 7 139 4.8 6.4 0.00 0.00 0.00 57 1011.3
20260503034700 7 142 1.6 3.2 0.00 0.00 0.00 56 1011.3
20260503034157 7 143 3.2 6.4 0.00 0.00 0.00 55 1011.4
20260503033654 7 77 1.6 6.4 0.00 0.00 0.00 55 1011.5
20260503033152 7 91 3.2 4.8 0.00 0.00 0.00 55 1011.5
20260503032650 7 149 1.6 6.4 0.00 0.00 0.00 55 1011.3
20260503032148 7 127 1.6 3.2 0.00 0.00 0.00 54 1011.2
20260503031645 7 145 3.2 6.4 0.00 0.00 0.00 53 1011.1
20260503031143 7 10 8.0 9.7 0.00 0.00 0.00 53 1011.3
20260503030638 7 99 3.2 9.7 0.00 0.00 0.00 52 1011.2
20260503030136 8 32 3.2 11.3 0.00 0.00 0.00 52 1011.2
20260503025632 8 103 1.6 3.2 0.00 0.00 0.00 51 1011.2
20260503025130 8 90 6.4 12.9 0.00 0.00 0.00 50 1011.1
20260503024626 8 111 0.0 9.7 0.00 0.00 0.00 49 1011.0